Hovedside
METAR-TAF:

METAR-TAF

Lufthavner :

Burlington / Mount Vernon, Washington, USA

breddegrad: 48-28-15N, lengdegrad: 122-25-15W, høyde over havet: 44 m

Gjeldene værobservasjon

Denne rapporten ble laget for 32 minutter siden, klokken 04:15 UTC
Flau vind
Temperatur 8°C
Luftfuktighet 93%
Trykk 1016 hPa
Sikt: 14.5 km
Skyfri himmel

METAR: KBVS 220415Z AUTO 00000KT 9SM CLR 08/07 A3000 RMK A01

Tid: 21:47 (04:47 UTC)


TAF: fraværende

Værobservasjoner og værvarsel for over 4000 flyplasser (METAR- og TAF-rapporter).

Tilgjengelige stasjoner er representert av de røde og gule prikkene på kartet.

Hold musepekeren over prikken for å se navnet på stasjonen.

Klikk så for å se værobservasjoner og -varsler.

For å forandre kartet kan du klikke på den grønne knappen med svart kryss for å zoome inn, på den grønne knappen med strek for å zoome ut, eller på de grønne pilene for å se tilstøtende kart.


METAR-TAF: